ftp/pub/mcmurdo/arrivalheights/2008/March/080305.txt
3/5/08
Time Wind Dir Wind Spd Wind Gust Hum In Humidity Temp In Temp Raw Barom Tot Rain
° kts kts % % °C °C mb mm
0:00 172 0 0 33 100 20.2 -8.2 961.33 0.00
0:20 91 3 4 27 100 20.7 -8.3 961.00 0.00
0:40 325 4 4 24 100 19.8 -8.7 961.23 0.00
1:00 335 6 6 31 100 19.9 -8.2 961.20 0.00
1:20 359 5 7 30 100 20.3 -8.8 961.17 0.00
1:40 323 5 7 23 100 20.5 -8.2 961.23 0.00
2:00 317 6 7 27 100 19.7 -8.3 961.44 0.00
2:20 308 10 10 32 100 19.8 -8.0 961.30 0.00
2:40 312 10 11 28 100 20.3 -7.8 961.47 0.00
3:00 309 10 11 25 100 20.6 -7.8 961.54 0.00
3:20 333 12 12 23 100 20.8 -7.8 961.47 0.00
3:40 333 12 13 30 100 20.7 -7.8 961.50 0.00
4:00 347 13 15 32 100 20.6 -7.9 961.17 0.00
4:20 344 16 17 28 100 20.7 -7.6 961.03 0.00
4:40 350 14 14 25 100 20.7 -7.3 961.33 0.00
5:00 343 9 10 25 100 20.9 -7.2 961.64 0.00
5:20 144 4 8 28 100 20.7 -7.9 961.88 0.00
5:40 112 3 3 29 100 19.8 -8.2 962.15 0.00
6:00 135 14 15 33 100 20.1 -8.2 962.25 0.00
6:20 140 15 17 27 100 20.8 -8.8 962.55 0.00
6:40 166 30 31 23 100 20.2 -10.1 961.94 0.00
7:00 169 16 25 29 100 19.7 -10.8 962.79 0.00
7:20 160 13 17 32 100 19.8 -9.4 963.43 0.00
7:40 165 17 24 31 100 20.2 -11.3 963.26 0.00
8:00 127 22 24 25 100 20.7 -10.1 963.30 0.00
8:20 24 14 17 23 100 20.2 -12.3 963.20 0.00
8:40 101 7 10 29 100 19.8 -11.5 965.26 0.00
9:00 137 10 14 33 100 20.1 -12.3 964.55 0.00
9:20 151 34 39 29 100 20.6 -12.5 963.71 0.00
9:40 190 35 35 24 100 20.8 -11.4 964.65 0.00
10:00 166 46 55 24 100 19.8 -13.4 965.09 0.00
10:20 163 43 51 28 100 19.3 -13.3 964.62 0.00
10:40 165 45 54 29 100 19.2 -13.1 964.62 0.00
11:00 167 41 45 31 100 19.0 -13.1 965.74 0.00
11:20 166 54 57 31 100 18.9 -13.2 965.30 0.00
11:40 152 39 52 31 100 18.7 -12.6 965.84 0.00
12:00 154 42 55 31 100 18.6 -12.4 965.74 0.00
12:20 153 32 44 32 100 18.5 -11.9 966.52 0.00
12:40 127 27 29 27 100 18.8 -11.6 967.90 0.00
13:00 123 29 30 25 100 19.3 -11.3 967.90 0.00
13:20 125 25 28 23 100 19.9 -11.6 968.07 0.00
13:40 108 17 22 28 100 20.1 -11.4 968.65 0.00
14:00 134 18 18 32 100 20.4 -10.8 968.85 0.00
14:20 120 16 23 30 100 20.8 -11.6 968.62 0.00
14:40 138 21 30 23 100 20.1 -11.3 968.31 0.00
15:00 134 26 27 29 100 19.6 -11.2 968.65 0.00
15:20 142 27 31 33 100 19.7 -10.9 968.18 0.00
15:40 170 32 38 27 100 20.1 -10.4 968.18 0.00
16:00 124 20 23 23 100 20.3 -11.0 969.02 0.00
16:20 111 14 14 24 100 19.8 -11.3 969.50 0.00
16:40 142 35 42 29 100 19.6 -10.3 968.51 0.00
17:00 149 31 34 32 100 19.7 -10.6 968.51 0.00
17:20 167 24 36 33 100 19.8 -10.9 968.85 0.00
17:40 49 18 18 27 100 20.3 -11.5 969.63 0.00
18:00 93 18 20 22 100 20.3 -10.9 969.46 0.00
18:20 81 19 22 28 100 19.7 -10.5 969.70 0.00
18:40 130 13 19 32 100 19.9 -10.5 969.70 0.00
19:00 130 14 17 29 100 20.3 -10.3 969.77 0.00
19:20 165 25 25 23 100 20.6 -10.1 969.39 0.00
19:40 144 16 23 26 100 19.7 -9.8 969.67 0.00
20:00 170 18 23 31 100 19.7 -10.4 969.53 0.00
20:20 167 20 21 30 100 20.1 -10.4 969.77 0.00
20:40 168 22 31 25 100 20.5 -10.4 969.46 0.00
21:00 120 14 15 23 100 20.3 -10.9 969.87 0.00
21:20 123 16 20 28 100 19.7 -10.8 969.90 0.00
21:40 119 14 17 33 100 20.0 -11.1 969.94 0.00
22:00 115 13 16 28 100 20.6 -11.1 969.87 0.00
22:20 99 11 15 23 100 19.9 -11.4 969.87 0.00
22:40 99 10 11 30 100 19.8 -11.5 970.07 0.00
23:00 119 13 15 33 100 20.1 -11.1 969.87 0.00
23:20 97 11 15 27 100 20.6 -11.2 969.53 0.00
23:40 67 10 12 23 100 19.9 -10.7 969.60 0.00


